Location: Unspecified
(38.6830°S, 0.0000°E)
Time: 18:47:39
(UTC+00:00)

Envisat - Pass Details

Date: 02 June 2019
Orbit: 764 x 766 km, 98.1° (Epoch: 18 June)

Event Time Altitude Azimuth Distance (km) Brightness Sun altitude
Rises 06:32:00 0° 11° (N) 3,221 6.7 -7.4°
Reaches altitude 10° 06:34:18 10° 9° (N) 2,303 5.9 -7.0°
Maximum altitude 06:39:23 78° 283° (WNW) 795 3.0 -6.1°
Drops below altitude 10° 06:44:33 10° 195° (SSW) 2,336 5.1 -5.1°
Sets 06:46:53 0° 194° (SSW) 3,270 5.9 -4.7°
